Wetterdaten: Sonntag, 20.05.2018
Datum Zeit Temp. A. Aussen2m Boden Feuchte A. Feuchte 2 Luftdruck Regen Wind Richtung Richtung Sonnenschein
20.05.2018 00:00 12,4 C 12,8 C 10,8 C 76 % 76 % 1020,8 hPa 0,0 l/m 3,0 km/h (1 Bft) NO 45 0 min
20.05.2018 00:05 12,4 C 12,7 C 10,8 C 76 % 77 % 1019,8 hPa 0,0 l/m 4,2 km/h (1 Bft) N 5 0 min
20.05.2018 00:10 12,3 C 12,6 C 10,8 C 76 % 77 % 1019,8 hPa 0,0 l/m 5,4 km/h (2 Bft) N 0 0 min
20.05.2018 00:15 12,3 C 12,6 C 10,8 C 76 % 78 % 1019,8 hPa 0,0 l/m 5,4 km/h (2 Bft) N-NO 30 0 min
20.05.2018 00:20 12,2 C 12,6 C 10,8 C 77 % 78 % 1020,8 hPa 0,0 l/m 4,8 km/h (1 Bft) N 355 0 min
20.05.2018 00:25 12,2 C 12,5 C 10,8 C 77 % 78 % 1020,8 hPa 0,0 l/m 4,8 km/h (1 Bft) N 5 0 min
20.05.2018 00:30 12,1 C 12,4 C 10,8 C 77 % 78 % 1020,8 hPa 0,0 l/m 4,8 km/h (1 Bft) N 355 0 min
20.05.2018 00:35 12,0 C 12,4 C 10,8 C 78 % 78 % 1019,8 hPa 0,0 l/m 6,1 km/h (2 Bft) N-NO 20 0 min
20.05.2018 00:40 12,0 C 12,4 C 10,8 C 78 % 78 % 1019,8 hPa 0,0 l/m 4,8 km/h (1 Bft) NO 45 0 min
20.05.2018 00:45 11,9 C 12,3 C 10,8 C 78 % 79 % 1019,8 hPa 0,0 l/m 3,6 km/h (1 Bft) N 355 0 min
20.05.2018 00:50 11,8 C 12,3 C 10,8 C 79 % 79 % 1019,8 hPa 0,0 l/m 5,4 km/h (2 Bft) N 0 0 min
20.05.2018 00:55 11,7 C 12,2 C 10,8 C 79 % 79 % 1019,8 hPa 0,0 l/m 2,4 km/h (1 Bft) NO 35 0 min
20.05.2018 01:00 11,7 C 12,0 C 10,8 C 79 % 80 % 1019,8 hPa 0,0 l/m 2,4 km/h (1 Bft) N 5 0 min
20.05.2018 01:05 11,6 C 12,0 C 10,8 C 80 % 80 % 1019,8 hPa 0,0 l/m 5,4 km/h (2 Bft) N 5 0 min
20.05.2018 01:10 11,5 C 11,9 C 10,8 C 80 % 80 % 1019,8 hPa 0,0 l/m 4,8 km/h (1 Bft) N-NO 25 0 min
20.05.2018 01:15 11,6 C 11,9 C 10,8 C 80 % 80 % 1019,8 hPa 0,0 l/m 7,9 km/h (2 Bft) N-NO 20 0 min
20.05.2018 01:20 11,5 C 11,9 C 10,8 C 80 % 80 % 1020,8 hPa 0,0 l/m 3,6 km/h (1 Bft) NO 45 0 min
20.05.2018 01:25 11,5 C 11,8 C 10,8 C 81 % 81 % 1020,8 hPa 0,0 l/m 4,8 km/h (1 Bft) N 350 0 min
20.05.2018 01:30 11,3 C 11,7 C 10,8 C 81 % 81 % 1020,8 hPa 0,0 l/m 2,4 km/h (1 Bft) N-NO 15 0 min
20.05.2018 01:35 11,2 C 11,6 C 10,8 C 81 % 81 % 1018,8 hPa 0,0 l/m 6,1 km/h (2 Bft) O 95 0 min
20.05.2018 01:40 11,1 C 11,5 C 10,8 C 82 % 82 % 1018,8 hPa 0,0 l/m 4,2 km/h (1 Bft) N-NO 20 0 min
20.05.2018 01:45 11,1 C 11,4 C 10,8 C 82 % 82 % 1018,8 hPa 0,0 l/m 4,8 km/h (1 Bft) N-NO 15 0 min
20.05.2018 01:50 11,1 C 11,4 C 10,8 C 82 % 82 % 1019,8 hPa 0,0 l/m 4,8 km/h (1 Bft) N-NO 30 0 min
20.05.2018 01:55 11,2 C 11,4 C 10,8 C 82 % 82 % 1019,8 hPa 0,0 l/m 4,2 km/h (1 Bft) NO 45 0 min
20.05.2018 02:00 11,2 C 11,3 C 10,8 C 81 % 82 % 1019,8 hPa 0,0 l/m 4,2 km/h (1 Bft) N-NW 340 0 min
20.05.2018 02:05 11,0 C 11,3 C 10,8 C 81 % 82 % 1020,8 hPa 0,0 l/m 3,0 km/h (1 Bft) N 10 0 min
20.05.2018 02:10 11,0 C 11,2 C 10,8 C 82 % 82 % 1020,8 hPa 0,0 l/m 3,6 km/h (1 Bft) N 350 0 min
20.05.2018 02:15 10,8 C 11,0 C 10,8 C 82 % 83 % 1020,8 hPa 0,0 l/m 3,0 km/h (1 Bft) N 0 0 min
20.05.2018 02:20 10,7 C 10,9 C 10,8 C 83 % 83 % 1019,8 hPa 0,0 l/m 4,8 km/h (1 Bft) N 350 0 min
20.05.2018 02:25 10,6 C 10,8 C 10,8 C 83 % 83 % 1019,8 hPa 0,0 l/m 2,4 km/h (1 Bft) N-NO 20 0 min
20.05.2018 02:30 10,6 C 10,8 C 10,8 C 83 % 84 % 1019,8 hPa 0,0 l/m 4,8 km/h (1 Bft) N 0 0 min
20.05.2018 02:35 10,6 C 10,8 C 10,8 C 84 % 84 % 1020,8 hPa 0,0 l/m 4,8 km/h (1 Bft) O-NO 65 0 min
20.05.2018 02:40 10,6 C 10,7 C 10,8 C 84 % 84 % 1020,8 hPa 0,0 l/m 4,2 km/h (1 Bft) N-NO 20 0 min
20.05.2018 02:45 10,5 C 10,6 C 10,8 C 84 % 84 % 1020,8 hPa 0,0 l/m 3,6 km/h (1 Bft) N 5 0 min
20.05.2018 02:50 10,5 C 10,6 C 10,8 C 84 % 84 % 1019,8 hPa 0,0 l/m 5,4 km/h (2 Bft) N-NO 15 0 min
20.05.2018 02:55 10,6 C 10,6 C 10,8 C 83 % 85 % 1019,8 hPa 0,0 l/m 7,3 km/h (2 Bft) N-NW 340 0 min
20.05.2018 03:00 10,7 C 10,6 C 10,8 C 82 % 85 % 1019,8 hPa 0,0 l/m 4,2 km/h (1 Bft) NO 35 0 min
20.05.2018 03:05 10,8 C 10,7 C 10,8 C 82 % 84 % 1019,8 hPa 0,0 l/m 3,0 km/h (1 Bft) N 5 0 min
20.05.2018 03:10 10,8 C 10,7 C 10,8 C 81 % 83 % 1019,8 hPa 0,0 l/m 3,0 km/h (1 Bft) NO 35 0 min
20.05.2018 03:15 10,7 C 10,6 C 10,8 C 81 % 83 % 1019,8 hPa 0,0 l/m 3,6 km/h (1 Bft) N-NO 20 0 min
20.05.2018 03:20 10,8 C 10,6 C 10,8 C 81 % 83 % 1019,8 hPa 0,0 l/m 4,2 km/h (1 Bft) N-NO 20 0 min
20.05.2018 03:25 10,9 C 10,6 C 10,8 C 80 % 83 % 1019,8 hPa 0,0 l/m 5,4 km/h (2 Bft) NO 35 0 min
20.05.2018 03:30 10,9 C 10,6 C 10,8 C 80 % 83 % 1019,8 hPa 0,0 l/m 2,4 km/h (1 Bft) NO 55 0 min
20.05.2018 03:35 10,8 C 10,6 C 10,8 C 80 % 82 % 1019,8 hPa 0,0 l/m 0,0 km/h (0 Bft) O 80 0 min
20.05.2018 03:40 10,7 C 10,6 C 10,8 C 80 % 82 % 1019,8 hPa 0,0 l/m 0,0 km/h (0 Bft) NW 325 0 min
20.05.2018 03:45 10,6 C 10,4 C 10,8 C 80 % 82 % 1019,8 hPa 0,0 l/m 1,2 km/h (1 Bft) N-NO 25 0 min
20.05.2018 03:50 10,5 C 10,3 C 10,8 C 80 % 82 % 1019,8 hPa 0,0 l/m 0,0 km/h (0 Bft) SW 220 0 min
20.05.2018 03:55 10,3 C 10,2 C 10,8 C 80 % 81 % 1019,8 hPa 0,0 l/m 0,0 km/h (0 Bft) S-SW 200 0 min
20.05.2018 04:00 9,9 C 10,0 C 10,8 C 81 % 81 % 1019,8 hPa 0,0 l/m 0,0 km/h (0 Bft) W-NW 295 0 min
20.05.2018 04:05 9,9 C 9,9 C 10,8 C 82 % 82 % 1019,8 hPa 0,0 l/m 0,0 km/h (0 Bft) N 355 0 min
20.05.2018 04:10 9,8 C 9,8 C 10,8 C 82 % 82 % 1019,8 hPa 0,0 l/m 0,0 km/h (0 Bft) NO 55 0 min
20.05.2018 04:15 9,9 C 9,7 C 10,8 C 82 % 82 % 1019,8 hPa 0,0 l/m 0,0 km/h (0 Bft) W 265 0 min
20.05.2018 04:20 9,9 C 9,7 C 10,8 C 82 % 83 % 1019,8 hPa 0,0 l/m 0,0 km/h (0 Bft) NW 325 0 min
20.05.2018 04:25 10,0 C 9,6 C 10,8 C 82 % 83 % 1019,8 hPa 0,0 l/m 0,0 km/h (0 Bft) W-NW 300 0 min
20.05.2018 04:30 9,9 C 9,6 C 10,8 C 82 % 83 % 1019,8 hPa 0,0 l/m 0,0 km/h (0 Bft) W-NW 290 0 min
20.05.2018 04:35 9,9 C 9,6 C 10,8 C 82 % 83 % 1019,8 hPa 0,0 l/m 0,0 km/h (0 Bft) W-NW 300 0 min
20.05.2018 04:40 9,8 C 9,5 C 10,8 C 82 % 83 % 1019,8 hPa 0,0 l/m 0,0 km/h (0 Bft) NW 305 0 min
20.05.2018 04:45 9,8 C 9,4 C 10,8 C 82 % 83 % 1019,8 hPa 0,0 l/m 0,0 km/h (0 Bft) W-SW 240 0 min
20.05.2018 04:50 9,8 C 9,3 C 10,8 C 82 % 84 % 1018,8 hPa 0,0 l/m 0,0 km/h (0 Bft) W 265 0 min
20.05.2018 04:55 9,7 C 9,3 C 10,8 C 82 % 84 % 1018,8 hPa 0,0 l/m 0,0 km/h (0 Bft) O-NO 60 0 min
20.05.2018 05:00 9,8 C 9,2 C 10,8 C 82 % 84 % 1018,8 hPa 0,0 l/m 0,0 km/h (0 Bft) NO 40 0 min
20.05.2018 05:05 9,9 C 9,2 C 10,8 C 82 % 84 % 1019,8 hPa 0,0 l/m 0,0 km/h (0 Bft) NO 45 0 min
20.05.2018 05:10 9,9 C 9,1 C 10,8 C 82 % 84 % 1019,8 hPa 0,0 l/m 0,0 km/h (0 Bft) S-SW 195 0 min
20.05.2018 05:15 9,7 C 9,1 C 10,8 C 82 % 83 % 1019,8 hPa 0,0 l/m 0,0 km/h (0 Bft) S-SW 205 0 min
20.05.2018 05:20 9,6 C 9,0 C 10,8 C 82 % 83 % 1019,8 hPa 0,0 l/m 0,0 km/h (0 Bft) S-SW 210 0 min
20.05.2018 05:25 9,5 C 8,9 C 10,8 C 83 % 83 % 1019,8 hPa 0,0 l/m 0,0 km/h (0 Bft) S-SW 205 0 min
20.05.2018 05:30 9,3 C 8,8 C 10,8 C 83 % 83 % 1019,8 hPa 0,0 l/m 0,0 km/h (0 Bft) W-SW 240 0 min
20.05.2018 05:35 9,2 C 8,8 C 10,8 C 83 % 84 % 1019,8 hPa 0,0 l/m 0,0 km/h (0 Bft) W 270 0 min
20.05.2018 05:40 9,2 C 8,8 C 10,8 C 83 % 84 % 1019,8 hPa 0,0 l/m 0,0 km/h (0 Bft) W-SW 240 0 min
20.05.2018 05:45 9,1 C 8,7 C 10,8 C 84 % 85 % 1019,8 hPa 0,0 l/m 0,0 km/h (0 Bft) SW 235 0 min
20.05.2018 05:50 9,1 C 8,7 C 10,8 C 84 % 84 % 1019,8 hPa 0,0 l/m 0,0 km/h (0 Bft) N 5 0 min
20.05.2018 05:55 9,1 C 8,7 C 10,8 C 84 % 85 % 1019,8 hPa 0,0 l/m 0,0 km/h (0 Bft) N 350 0 min
20.05.2018 06:00 9,2 C 8,7 C 10,8 C 84 % 85 % 1019,8 hPa 0,0 l/m 0,0 km/h (0 Bft) N 5 0 min
20.05.2018 06:05 9,2 C 8,7 C 10,8 C 83 % 85 % 1019,8 hPa 0,0 l/m 0,0 km/h (0 Bft) N-NO 15 0 min
20.05.2018 06:10 9,3 C 8,7 C 10,8 C 83 % 85 % 1019,8 hPa 0,0 l/m 0,0 km/h (0 Bft) NO 35 0 min
20.05.2018 06:15 9,3 C 8,9 C 10,8 C 83 % 86 % 1019,8 hPa 0,0 l/m 0,0 km/h (0 Bft) N 0 0 min
20.05.2018 06:20 9,5 C 8,9 C 10,8 C 83 % 86 % 1019,8 hPa 0,0 l/m 0,0 km/h (0 Bft) NO 35 0 min
20.05.2018 06:25 9,6 C 9,1 C 10,8 C 84 % 86 % 1019,8 hPa 0,0 l/m 0,0 km/h (0 Bft) N-NO 20 0 min
20.05.2018 06:30 9,8 C 9,2 C 10,8 C 84 % 86 % 1019,8 hPa 0,0 l/m 0,0 km/h (0 Bft) N-NO 25 0 min
20.05.2018 06:35 10,0 C 9,3 C 10,8 C 84 % 87 % 1019,8 hPa 0,0 l/m 2,4 km/h (1 Bft) N-NO 30 0 min
20.05.2018 06:40 10,0 C 9,5 C 10,8 C 84 % 87 % 1019,8 hPa 0,0 l/m 2,4 km/h (1 Bft) N-NO 25 0 min
20.05.2018 06:45 10,2 C 9,7 C 10,8 C 83 % 87 % 1019,8 hPa 0,0 l/m 2,4 km/h (1 Bft) NO 40 0 min
20.05.2018 06:50 10,4 C 9,9 C 10,8 C 83 % 87 % 1019,8 hPa 0,0 l/m 1,8 km/h (1 Bft) NO 55 0 min
20.05.2018 06:55 10,5 C 10,0 C 10,8 C 82 % 87 % 1019,8 hPa 0,0 l/m 0,0 km/h (0 Bft) N 0 0 min
20.05.2018 07:00 10,6 C 10,2 C 10,8 C 82 % 86 % 1019,8 hPa 0,0 l/m 1,2 km/h (1 Bft) N 355 0 min
20.05.2018 07:05 10,7 C 10,3 C 10,8 C 82 % 86 % 1019,8 hPa 0,0 l/m 0,0 km/h (0 Bft) W-NW 290 0 min
20.05.2018 07:10 10,8 C 10,4 C 10,8 C 82 % 85 % 1019,8 hPa 0,0 l/m 0,0 km/h (0 Bft) N-NO 25 0 min
20.05.2018 07:15 11,0 C 10,6 C 10,8 C 81 % 85 % 1019,8 hPa 0,0 l/m 1,8 km/h (1 Bft) N 5 0 min
20.05.2018 07:20 11,1 C 10,8 C 10,8 C 81 % 85 % 1019,8 hPa 0,0 l/m 0,6 km/h (0 Bft) N-NO 15 0 min
20.05.2018 07:25 11,4 C 11,0 C 10,8 C 80 % 85 % 1019,8 hPa 0,0 l/m 2,4 km/h (1 Bft) N 350 3 min
20.05.2018 07:30 11,5 C 11,0 C 10,8 C 80 % 85 % 1019,8 hPa 0,0 l/m 2,4 km/h (1 Bft) N-NO 15 3 min
20.05.2018 07:35 11,7 C 11,2 C 10,8 C 80 % 85 % 1018,8 hPa 0,0 l/m 0,0 km/h (0 Bft) N-NW 340 6 min
20.05.2018 07:40 11,9 C 11,4 C 10,8 C 79 % 84 % 1018,8 hPa 0,0 l/m 1,2 km/h (1 Bft) N 355 4 min
20.05.2018 07:45 12,2 C 11,5 C 10,8 C 78 % 84 % 1018,8 hPa 0,0 l/m 0,6 km/h (0 Bft) N 355 5 min
20.05.2018 07:50 12,2 C 11,8 C 10,8 C 77 % 83 % 1018,8 hPa 0,0 l/m 6,1 km/h (2 Bft) N 10 5 min
20.05.2018 07:55 12,4 C 11,9 C 10,8 C 77 % 82 % 1018,8 hPa 0,0 l/m 3,0 km/h (1 Bft) S 185 6 min
20.05.2018 08:00 12,5 C 12,0 C 10,8 C 77 % 82 % 1018,8 hPa 0,0 l/m 6,1 km/h (2 Bft) N-NO 30 5 min
20.05.2018 08:05 12,5 C 12,1 C 10,8 C 76 % 81 % 1020,8 hPa 0,0 l/m 4,8 km/h (1 Bft) W-NW 295 4 min
20.05.2018 08:10 12,8 C 12,2 C 10,8 C 77 % 82 % 1020,8 hPa 0,0 l/m 4,8 km/h (1 Bft) NW 305 5 min
20.05.2018 08:15 12,9 C 12,5 C 10,8 C 76 % 81 % 1020,8 hPa 0,0 l/m 4,2 km/h (1 Bft) N-NO 30 6 min
20.05.2018 08:20 13,1 C 12,7 C 10,8 C 75 % 81 % 1019,8 hPa 0,0 l/m 5,4 km/h (2 Bft) N-NW 330 5 min
20.05.2018 08:25 13,3 C 12,8 C 10,8 C 74 % 80 % 1019,8 hPa 0,0 l/m 6,1 km/h (2 Bft) NW 305 5 min
20.05.2018 08:30 13,5 C 13,0 C 10,8 C 74 % 80 % 1019,8 hPa 0,0 l/m 4,8 km/h (1 Bft) W-NW 295 1 min
20.05.2018 08:35 13,9 C 13,1 C 10,8 C 73 % 79 % 1020,8 hPa 0,0 l/m 4,8 km/h (1 Bft) N-NO 20 0 min
20.05.2018 08:40 14,2 C 13,4 C 10,8 C 72 % 78 % 1020,8 hPa 0,0 l/m 7,3 km/h (2 Bft) N-NO 25 0 min
20.05.2018 08:45 14,3 C 13,5 C 10,8 C 71 % 77 % 1020,8 hPa 0,0 l/m 4,2 km/h (1 Bft) W 275 0 min
20.05.2018 08:50 14,6 C 13,8 C 10,8 C 69 % 77 % 1019,8 hPa 0,0 l/m 2,4 km/h (1 Bft) NO 35 0 min
20.05.2018 08:55 14,7 C 14,0 C 10,8 C 69 % 75 % 1019,8 hPa 0,0 l/m 13,3 km/h (3 Bft) NO 45 1 min
20.05.2018 09:00 15,3 C 14,2 C 10,8 C 67 % 74 % 1019,8 hPa 0,0 l/m 9,1 km/h (2 Bft) NO 40 5 min
20.05.2018 09:05 15,4 C 14,6 C 10,8 C 66 % 73 % 1020,8 hPa 0,0 l/m 10,9 km/h (2 Bft) N-NO 20 5 min
20.05.2018 09:10 15,8 C 14,9 C 10,8 C 65 % 72 % 1020,7 hPa 0,0 l/m 9,7 km/h (2 Bft) N-NO 30 5 min
20.05.2018 09:15 15,9 C 15,0 C 10,8 C 64 % 69 % 1020,7 hPa 0,0 l/m 12,1 km/h (2 Bft) SO 135 5 min
20.05.2018 09:20 16,0 C 15,2 C 10,8 C 63 % 69 % 1020,7 hPa 0,0 l/m 13,3 km/h (3 Bft) N-NO 25 5 min
20.05.2018 09:25 16,1 C 15,4 C 10,8 C 63 % 69 % 1020,7 hPa 0,0 l/m 12,1 km/h (2 Bft) O-NO 70 5 min
20.05.2018 09:30 16,7 C 15,8 C 10,8 C 62 % 69 % 1020,7 hPa 0,0 l/m 7,9 km/h (2 Bft) SO 125 5 min
20.05.2018 09:35 16,7 C 15,9 C 10,8 C 61 % 67 % 1020,7 hPa 0,0 l/m 14,5 km/h (3 Bft) NO 35 5 min
20.05.2018 09:40 16,7 C 16,1 C 10,8 C 61 % 66 % 1020,7 hPa 0,0 l/m 11,5 km/h (2 Bft) NO 35 5 min
20.05.2018 09:45 17,1 C 16,5 C 10,8 C 59 % 66 % 1020,7 hPa 0,0 l/m 11,5 km/h (2 Bft) NO 45 5 min
20.05.2018 09:50 17,0 C 16,7 C 10,8 C 59 % 64 % 1020,7 hPa 0,0 l/m 12,7 km/h (3 Bft) NO 35 5 min
20.05.2018 09:55 17,5 C 16,9 C 10,8 C 58 % 64 % 1020,7 hPa 0,0 l/m 14,5 km/h (3 Bft) N 10 5 min
20.05.2018 10:00 17,7 C 17,0 C 10,8 C 57 % 63 % 1020,7 hPa 0,0 l/m 12,7 km/h (3 Bft) NO 45 5 min
20.05.2018 10:05 18,0 C 17,4 C 10,8 C 57 % 63 % 1020,7 hPa 0,0 l/m 12,1 km/h (2 Bft) NO 40 5 min
20.05.2018 10:10 18,3 C 17,6 C 10,8 C 57 % 63 % 1020,7 hPa 0,0 l/m 15,1 km/h (3 Bft) NO 55 3 min
20.05.2018 10:15 18,7 C 17,9 C 10,8 C 55 % 62 % 1020,7 hPa 0,0 l/m 8,5 km/h (2 Bft) N 0 7 min
20.05.2018 10:20 18,6 C 18,2 C 10,8 C 55 % 60 % 1019,7 hPa 0,0 l/m 11,5 km/h (2 Bft) N 5 3 min
20.05.2018 10:25 18,5 C 18,4 C 10,8 C 54 % 59 % 1019,7 hPa 0,0 l/m 16,9 km/h (3 Bft) N 5 7 min
20.05.2018 10:30 18,5 C 18,5 C 10,8 C 54 % 58 % 1019,7 hPa 0,0 l/m 20,6 km/h (4 Bft) N-NW 335 3 min
20.05.2018 10:35 18,7 C 18,6 C 10,8 C 53 % 58 % 1020,7 hPa 0,0 l/m 14,5 km/h (3 Bft) NO 35 6 min
20.05.2018 10:40 18,8 C 18,6 C 10,8 C 53 % 58 % 1020,7 hPa 0,0 l/m 13,3 km/h (3 Bft) N-NW 330 4 min
20.05.2018 10:45 19,0 C 18,8 C 10,8 C 53 % 58 % 1020,7 hPa 0,0 l/m 15,1 km/h (3 Bft) N-NO 30 6 min
20.05.2018 10:50 19,3 C 19,0 C 10,8 C 52 % 57 % 1019,7 hPa 0,0 l/m 19,4 km/h (3 Bft) O 80 4 min
20.05.2018 10:55 19,4 C 19,2 C 10,8 C 52 % 57 % 1019,7 hPa 0,0 l/m 16,9 km/h (3 Bft) N-NO 30 6 min
20.05.2018 11:00 19,4 C 19,3 C 10,8 C 52 % 56 % 1019,7 hPa 0,0 l/m 21,8 km/h (4 Bft) NO 35 5 min
20.05.2018 11:05 19,5 C 19,3 C 10,8 C 51 % 55 % 1018,7 hPa 0,0 l/m 20,6 km/h (4 Bft) O-NO 60 5 min
20.05.2018 11:10 19,4 C 19,4 C 10,8 C 51 % 55 % 1018,7 hPa 0,0 l/m 19,4 km/h (3 Bft) N-NO 20 5 min
20.05.2018 11:15 19,5 C 19,6 C 10,8 C 50 % 55 % 1018,7 hPa 0,0 l/m 16,3 km/h (3 Bft) N 5 5 min
20.05.2018 11:20 19,9 C 19,7 C 10,8 C 51 % 54 % 1019,7 hPa 0,0 l/m 14,5 km/h (3 Bft) NO 45 5 min
20.05.2018 11:25 19,9 C 19,8 C 10,8 C 50 % 54 % 1019,7 hPa 0,0 l/m 18,2 km/h (3 Bft) N 355 5 min
20.05.2018 11:30 20,0 C 19,9 C 10,8 C 50 % 55 % 1019,7 hPa 0,0 l/m 14,5 km/h (3 Bft) O-NO 65 6 min
20.05.2018 11:35 20,2 C 20,0 C 10,8 C 50 % 54 % 1019,7 hPa 0,0 l/m 15,7 km/h (3 Bft) N-NO 20 4 min
20.05.2018 11:40 20,1 C 20,2 C 10,8 C 50 % 53 % 1019,7 hPa 0,0 l/m 22,4 km/h (4 Bft) N 0 6 min
20.05.2018 11:45 20,5 C 20,4 C 10,8 C 50 % 54 % 1019,7 hPa 0,0 l/m 19,4 km/h (3 Bft) O 80 4 min
20.05.2018 11:50 21,3 C 20,6 C 10,8 C 48 % 54 % 1019,7 hPa 0,0 l/m 15,7 km/h (3 Bft) N 10 6 min
20.05.2018 11:55 21,1 C 20,9 C 10,8 C 48 % 54 % 1019,7 hPa 0,0 l/m 20,0 km/h (4 Bft) O-NO 60 5 min
20.05.2018 12:00 21,1 C 21,0 C 10,8 C 48 % 52 % 1019,7 hPa 0,0 l/m 16,9 km/h (3 Bft) O 90 5 min
20.05.2018 12:05 21,5 C 21,1 C 10,8 C 48 % 53 % 1019,7 hPa 0,0 l/m 16,9 km/h (3 Bft) NO 35 5 min
20.05.2018 12:10 21,2 C 21,2 C 10,8 C 48 % 52 % 1019,7 hPa 0,0 l/m 16,3 km/h (3 Bft) NO 35 5 min
20.05.2018 12:15 21,4 C 21,3 C 10,8 C 48 % 52 % 1019,7 hPa 0,0 l/m 21,2 km/h (4 Bft) SO 135 3 min
20.05.2018 12:20 21,3 C 21,3 C 10,8 C 49 % 51 % 1019,7 hPa 0,0 l/m 15,7 km/h (3 Bft) NO 50 7 min
20.05.2018 12:25 22,0 C 21,6 C 10,8 C 47 % 52 % 1019,7 hPa 0,0 l/m 13,9 km/h (3 Bft) NO 40 5 min
20.05.2018 12:30 21,6 C 21,7 C 10,8 C 47 % 52 % 1019,7 hPa 0,0 l/m 21,2 km/h (4 Bft) O-NO 70 5 min
20.05.2018 12:35 21,5 C 21,6 C 10,8 C 47 % 52 % 1019,7 hPa 0,0 l/m 18,8 km/h (3 Bft) O-SO 120 3 min
20.05.2018 12:40 22,5 C 21,8 C 10,8 C 46 % 52 % 1019,7 hPa 0,0 l/m 26,7 km/h (4 Bft) O-SO 115 7 min
20.05.2018 12:45 22,7 C 22,0 C 10,8 C 45 % 52 % 1019,7 hPa 0,0 l/m 13,3 km/h (3 Bft) O-NO 60 5 min
20.05.2018 12:50 22,7 C 22,3 C 10,8 C 45 % 49 % 1019,6 hPa 0,0 l/m 6,7 km/h (2 Bft) O-NO 70 5 min
20.05.2018 12:55 23,0 C 22,3 C 10,8 C 45 % 51 % 1019,6 hPa 0,0 l/m 14,5 km/h (3 Bft) NO 45 3 min
20.05.2018 13:00 23,2 C 22,6 C 10,8 C 45 % 51 % 1019,6 hPa 0,0 l/m 12,7 km/h (3 Bft) N-NO 20 7 min
20.05.2018 13:05 23,4 C 22,8 C 10,8 C 44 % 50 % 1019,6 hPa 0,0 l/m 12,1 km/h (2 Bft) SO 140 3 min
20.05.2018 13:10 23,3 C 22,8 C 10,8 C 45 % 51 % 1019,6 hPa 0,0 l/m 13,9 km/h (3 Bft) O-NO 70 8 min
20.05.2018 13:15 23,7 C 22,8 C 10,8 C 44 % 50 % 1019,6 hPa 0,0 l/m 12,1 km/h (2 Bft) O 90 4 min
20.05.2018 13:20 23,7 C 22,8 C 10,8 C 44 % 50 % 1019,6 hPa 0,0 l/m 11,5 km/h (2 Bft) O-NO 75 5 min
20.05.2018 13:25 23,9 C 23,1 C 10,8 C 45 % 51 % 1019,6 hPa 0,0 l/m 6,1 km/h (2 Bft) N 5 5 min
20.05.2018 13:30 23,4 C 23,2 C 10,8 C 45 % 49 % 1019,6 hPa 0,0 l/m 13,3 km/h (3 Bft) O-SO 105 5 min
20.05.2018 13:35 23,6 C 23,4 C 10,8 C 45 % 49 % 1018,6 hPa 0,0 l/m 12,1 km/h (2 Bft) NO 45 3 min
20.05.2018 13:40 23,9 C 23,4 C 10,8 C 44 % 49 % 1018,6 hPa 0,0 l/m 11,5 km/h (2 Bft) W-SW 255 5 min
20.05.2018 13:45 24,4 C 23,6 C 10,8 C 44 % 50 % 1018,6 hPa 0,0 l/m 14,5 km/h (3 Bft) SO 125 7 min
20.05.2018 13:50 24,1 C 23,6 C 10,8 C 44 % 48 % 1018,6 hPa 0,0 l/m 14,5 km/h (3 Bft) O-NO 65 3 min
20.05.2018 13:55 24,6 C 23,8 C 10,8 C 42 % 49 % 1018,6 hPa 0,0 l/m 8,5 km/h (2 Bft) N-NO 15 5 min
20.05.2018 14:00 24,5 C 23,9 C 10,8 C 43 % 48 % 1018,6 hPa 0,0 l/m 13,3 km/h (3 Bft) N-NO 25 6 min
20.05.2018 14:05 24,9 C 24,1 C 10,8 C 42 % 48 % 1018,6 hPa 0,0 l/m 14,5 km/h (3 Bft) N-NO 30 5 min
20.05.2018 14:10 25,0 C 24,4 C 10,8 C 42 % 48 % 1018,6 hPa 0,0 l/m 8,5 km/h (2 Bft) O 95 4 min
20.05.2018 14:15 24,5 C 24,5 C 10,8 C 43 % 47 % 1018,6 hPa 0,0 l/m 14,5 km/h (3 Bft) O-SO 110 6 min
20.05.2018 14:20 24,5 C 24,2 C 10,8 C 43 % 46 % 1018,6 hPa 0,0 l/m 15,7 km/h (3 Bft) S-SO 150 3 min
20.05.2018 14:25 24,4 C 24,2 C 10,8 C 43 % 47 % 1018,6 hPa 0,0 l/m 7,9 km/h (2 Bft) O 80 6 min
20.05.2018 14:30 24,4 C 24,4 C 10,8 C 42 % 46 % 1018,6 hPa 0,0 l/m 13,9 km/h (3 Bft) SO 135 5 min
20.05.2018 14:35 24,6 C 24,4 C 10,8 C 41 % 46 % 1017,6 hPa 0,0 l/m 10,3 km/h (2 Bft) SO 125 5 min
20.05.2018 14:40 24,6 C 24,5 C 10,8 C 42 % 47 % 1017,6 hPa 0,0 l/m 23,0 km/h (4 Bft) S-SO 155 5 min
20.05.2018 14:45 24,9 C 24,4 C 10,8 C 41 % 46 % 1017,6 hPa 0,0 l/m 10,3 km/h (2 Bft) O-NO 60 5 min
20.05.2018 14:50 25,3 C 24,8 C 10,8 C 40 % 46 % 1017,6 hPa 0,0 l/m 23,6 km/h (4 Bft) O-NO 70 5 min
20.05.2018 14:55 25,3 C 24,8 C 10,8 C 41 % 45 % 1017,6 hPa 0,0 l/m 15,7 km/h (3 Bft) O 85 5 min
20.05.2018 15:00 25,3 C 24,8 C 10,8 C 41 % 46 % 1017,6 hPa 0,0 l/m 13,3 km/h (3 Bft) S 180 5 min
20.05.2018 15:05 25,4 C 25,0 C 10,8 C 41 % 46 % 1017,6 hPa 0,0 l/m 12,1 km/h (2 Bft) O-SO 120 5 min
20.05.2018 15:10 24,9 C 25,0 C 10,8 C 42 % 46 % 1017,6 hPa 0,0 l/m 16,3 km/h (3 Bft) S-SO 155 4 min
20.05.2018 15:15 25,0 C 24,8 C 10,8 C 41 % 45 % 1017,6 hPa 0,0 l/m 13,9 km/h (3 Bft) O-SO 120 5 min
20.05.2018 15:20 25,4 C 24,9 C 10,8 C 41 % 46 % 1017,6 hPa 0,0 l/m 18,2 km/h (3 Bft) N-NO 25 6 min
20.05.2018 15:25 25,4 C 24,8 C 10,8 C 40 % 44 % 1017,6 hPa 0,0 l/m 16,3 km/h (3 Bft) NO 55 5 min
20.05.2018 15:30 25,2 C 24,8 C 10,8 C 40 % 43 % 1017,6 hPa 0,0 l/m 13,9 km/h (3 Bft) NO 45 5 min
20.05.2018 15:35 25,3 C 24,8 C 10,8 C 39 % 45 % 1017,6 hPa 0,0 l/m 12,7 km/h (3 Bft) SO 145 5 min
20.05.2018 15:40 25,5 C 25,0 C 10,8 C 40 % 44 % 1017,6 hPa 0,0 l/m 18,8 km/h (3 Bft) N-NO 25 5 min
20.05.2018 15:45 25,5 C 24,9 C 10,8 C 39 % 44 % 1017,6 hPa 0,0 l/m 16,9 km/h (3 Bft) SO 125 5 min
20.05.2018 15:50 25,7 C 25,1 C 10,8 C 40 % 45 % 1017,6 hPa 0,0 l/m 17,6 km/h (3 Bft) O-NO 70 4 min
20.05.2018 15:55 25,6 C 25,2 C 10,8 C 40 % 43 % 1017,6 hPa 0,0 l/m 18,2 km/h (3 Bft) N 5 6 min
20.05.2018 16:00 25,7 C 25,0 C 10,8 C 40 % 45 % 1017,6 hPa 0,0 l/m 16,9 km/h (3 Bft) SO 140 4 min
20.05.2018 16:05 25,5 C 25,2 C 10,8 C 39 % 44 % 1016,6 hPa 0,0 l/m 13,9 km/h (3 Bft) SO 145 6 min
20.05.2018 16:10 25,6 C 25,4 C 10,8 C 39 % 44 % 1016,6 hPa 0,0 l/m 16,3 km/h (3 Bft) O 85 5 min
20.05.2018 16:15 25,2 C 25,1 C 10,8 C 39 % 44 % 1016,6 hPa 0,0 l/m 15,7 km/h (3 Bft) NO 55 5 min
20.05.2018 16:20 25,7 C 25,1 C 10,8 C 39 % 45 % 1016,6 hPa 0,0 l/m 11,5 km/h (2 Bft) O-NO 75 5 min
20.05.2018 16:25 26,1 C 25,2 C 10,8 C 38 % 42 % 1016,6 hPa 0,0 l/m 14,5 km/h (3 Bft) N 10 4 min
20.05.2018 16:30 25,5 C 25,1 C 10,8 C 38 % 42 % 1016,6 hPa 0,0 l/m 16,9 km/h (3 Bft) S 180 5 min
20.05.2018 16:35 25,8 C 25,0 C 10,8 C 39 % 43 % 1016,6 hPa 0,0 l/m 20,0 km/h (4 Bft) O 95 5 min
20.05.2018 16:40 25,7 C 25,2 C 10,8 C 38 % 43 % 1016,6 hPa 0,0 l/m 15,7 km/h (3 Bft) NO 35 5 min
20.05.2018 16:45 25,5 C 25,2 C 10,8 C 38 % 42 % 1016,6 hPa 0,0 l/m 17,6 km/h (3 Bft) NO 50 5 min
20.05.2018 16:50 25,6 C 25,4 C 10,8 C 38 % 42 % 1016,6 hPa 0,0 l/m 16,9 km/h (3 Bft) NO 50 5 min
20.05.2018 16:55 25,7 C 25,3 C 10,8 C 38 % 41 % 1016,6 hPa 0,0 l/m 13,9 km/h (3 Bft) NO 40 5 min
20.05.2018 17:00 26,1 C 25,5 C 10,8 C 38 % 42 % 1016,6 hPa 0,0 l/m 15,7 km/h (3 Bft) N-NW 335 3 min
20.05.2018 17:05 25,7 C 25,5 C 10,8 C 38 % 41 % 1015,6 hPa 0,0 l/m 18,8 km/h (3 Bft) N 10 7 min
20.05.2018 17:10 26,1 C 25,6 C 10,8 C 38 % 42 % 1015,6 hPa 0,0 l/m 15,1 km/h (3 Bft) N 355 5 min
20.05.2018 17:15 25,7 C 25,6 C 10,8 C 38 % 41 % 1015,6 hPa 0,0 l/m 20,6 km/h (4 Bft) O-SO 115 5 min
20.05.2018 17:20 25,9 C 25,5 C 10,8 C 38 % 41 % 1015,6 hPa 0,0 l/m 13,3 km/h (3 Bft) O-SO 110 5 min
20.05.2018 17:25 25,9 C 25,6 C 10,8 C 37 % 41 % 1015,6 hPa 0,0 l/m 22,4 km/h (4 Bft) SO 130 3 min
20.05.2018 17:30 25,8 C 25,4 C 10,8 C 37 % 40 % 1015,6 hPa 0,0 l/m 16,9 km/h (3 Bft) N-NO 30 7 min
20.05.2018 17:35 25,9 C 25,5 C 10,8 C 36 % 39 % 1015,6 hPa 0,0 l/m 19,4 km/h (3 Bft) O-NO 60 5 min
20.05.2018 17:40 25,4 C 25,4 C 10,8 C 36 % 39 % 1015,6 hPa 0,0 l/m 26,0 km/h (4 Bft) O-SO 120 5 min
20.05.2018 17:45 25,6 C 25,4 C 10,8 C 36 % 39 % 1015,6 hPa 0,0 l/m 14,5 km/h (3 Bft) SO 135 3 min
20.05.2018 17:50 26,0 C 25,4 C 10,8 C 37 % 40 % 1015,6 hPa 0,0 l/m 23,6 km/h (4 Bft) O 80 7 min
20.05.2018 17:55 25,7 C 25,3 C 10,8 C 36 % 39 % 1015,6 hPa 0,0 l/m 20,0 km/h (4 Bft) O 100 3 min
20.05.2018 18:00 25,7 C 25,3 C 10,8 C 35 % 39 % 1015,6 hPa 0,0 l/m 16,9 km/h (3 Bft) O 100 6 min
20.05.2018 18:05 25,6 C 25,4 C 10,8 C 35 % 38 % 1016,6 hPa 0,0 l/m 20,6 km/h (4 Bft) NO 35 4 min
20.05.2018 18:10 25,8 C 25,3 C 10,8 C 35 % 38 % 1016,6 hPa 0,0 l/m 19,4 km/h (3 Bft) O 85 6 min
20.05.2018 18:15 25,5 C 25,2 C 10,8 C 35 % 38 % 1016,6 hPa 0,0 l/m 16,9 km/h (3 Bft) NO 55 4 min
20.05.2018 18:20 25,7 C 25,1 C 10,8 C 35 % 38 % 1015,6 hPa 0,0 l/m 20,0 km/h (4 Bft) N-NO 15 6 min
20.05.2018 18:25 25,8 C 25,2 C 10,8 C 35 % 38 % 1015,6 hPa 0,0 l/m 21,8 km/h (4 Bft) S-SO 150 5 min
20.05.2018 18:30 25,6 C 25,1 C 10,8 C 35 % 38 % 1015,6 hPa 0,0 l/m 18,2 km/h (3 Bft) O 100 5 min
20.05.2018 18:35 25,7 C 25,1 C 10,8 C 35 % 38 % 1015,6 hPa 0,0 l/m 9,7 km/h (2 Bft) O 100 5 min
20.05.2018 18:40 25,8 C 25,1 C 10,8 C 34 % 37 % 1015,6 hPa 0,0 l/m 15,1 km/h (3 Bft) NO 50 5 min
20.05.2018 18:45 25,4 C 24,9 C 10,8 C 34 % 38 % 1015,6 hPa 0,0 l/m 18,2 km/h (3 Bft) NO 40 2 min
20.05.2018 18:50 25,2 C 24,6 C 10,8 C 35 % 38 % 1015,6 hPa 0,0 l/m 24,2 km/h (4 Bft) O 100 0 min
20.05.2018 18:55 24,8 C 24,6 C 10,8 C 35 % 38 % 1015,6 hPa 0,0 l/m 13,3 km/h (3 Bft) O 80 0 min
20.05.2018 19:00 24,6 C 24,3 C 10,8 C 35 % 38 % 1015,6 hPa 0,0 l/m 7,3 km/h (2 Bft) W-SW 255 0 min
20.05.2018 19:05 24,3 C 24,2 C 10,8 C 36 % 39 % 1015,6 hPa 0,0 l/m 10,9 km/h (2 Bft) O 95 1 min
20.05.2018 19:10 24,5 C 24,2 C 10,8 C 35 % 38 % 1015,6 hPa 0,0 l/m 15,7 km/h (3 Bft) O 90 2 min
20.05.2018 19:15 24,7 C 24,2 C 10,8 C 34 % 38 % 1015,6 hPa 0,0 l/m 26,7 km/h (4 Bft) O-SO 110 2 min
20.05.2018 19:20 24,8 C 24,3 C 10,8 C 34 % 38 % 1015,6 hPa 0,0 l/m 26,3 km/h (4 Bft) O-NO 60 4 min
20.05.2018 19:25 24,9 C 24,3 C 10,8 C 34 % 37 % 1015,6 hPa 0,0 l/m 20,0 km/h (4 Bft) NW 315 0 min
20.05.2018 19:30 24,8 C 24,3 C 10,8 C 34 % 38 % 1015,6 hPa 0,0 l/m 28,6 km/h (5 Bft) O-NO 60 0 min
20.05.2018 19:35 24,9 C 24,3 C 10,8 C 34 % 38 % 1014,6 hPa 0,0 l/m 17,6 km/h (3 Bft) O 95 2 min
20.05.2018 19:40 24,9 C 24,2 C 10,8 C 34 % 37 % 1014,6 hPa 0,0 l/m 16,9 km/h (3 Bft) SO 140 0 min
20.05.2018 19:45 24,6 C 24,2 C 10,8 C 34 % 37 % 1014,6 hPa 0,0 l/m 12,1 km/h (2 Bft) NO 35 6 min
20.05.2018 19:50 24,5 C 24,1 C 10,8 C 34 % 37 % 1015,6 hPa 0,0 l/m 24,2 km/h (4 Bft) SO 125 5 min
20.05.2018 19:55 24,3 C 24,1 C 10,8 C 35 % 37 % 1015,6 hPa 0,0 l/m 21,8 km/h (4 Bft) O 80 5 min
20.05.2018 20:00 24,3 C 24,0 C 10,8 C 35 % 37 % 1015,6 hPa 0,0 l/m 23,6 km/h (4 Bft) O 85 3 min
20.05.2018 20:05 24,2 C 23,8 C 10,8 C 35 % 38 % 1014,6 hPa 0,0 l/m 16,9 km/h (3 Bft) N-NO 25 5 min
20.05.2018 20:10 24,1 C 23,8 C 10,8 C 35 % 38 % 1014,6 hPa 0,0 l/m 23,6 km/h (4 Bft) O-NO 75 5 min
20.05.2018 20:15 24,0 C 23,7 C 10,8 C 35 % 38 % 1014,6 hPa 0,0 l/m 24,2 km/h (4 Bft) O-NO 60 5 min
20.05.2018 20:20 23,9 C 23,7 C 10,8 C 35 % 38 % 1015,6 hPa 0,0 l/m 15,7 km/h (3 Bft) SW 225 5 min
20.05.2018 20:25 23,6 C 23,5 C 10,8 C 37 % 39 % 1015,6 hPa 0,0 l/m 17,6 km/h (3 Bft) O-SO 105 3 min
20.05.2018 20:30 23,0 C 23,2 C 10,8 C 40 % 42 % 1015,6 hPa 0,0 l/m 8,5 km/h (2 Bft) S 175 0 min
20.05.2018 20:35 22,8 C 23,0 C 10,8 C 42 % 44 % 1015,6 hPa 0,0 l/m 6,1 km/h (2 Bft) SW 220 0 min
20.05.2018 20:40 22,5 C 22,8 C 10,8 C 43 % 45 % 1015,6 hPa 0,0 l/m 10,3 km/h (2 Bft) S 185 0 min
20.05.2018 20:45 22,2 C 22,5 C 10,8 C 43 % 46 % 1015,6 hPa 0,0 l/m 10,9 km/h (2 Bft) S-SW 200 0 min
20.05.2018 20:50 22,3 C 22,4 C 10,8 C 43 % 46 % 1015,6 hPa 0,0 l/m 4,2 km/h (1 Bft) N 350 0 min
20.05.2018 20:55 22,2 C 22,2 C 10,8 C 43 % 47 % 1015,6 hPa 0,0 l/m 8,5 km/h (2 Bft) SO 125 0 min
20.05.2018 21:00 21,9 C 22,0 C 10,8 C 43 % 47 % 1015,6 hPa 0,0 l/m 10,9 km/h (2 Bft) O 100 0 min
20.05.2018 21:05 21,6 C 21,7 C 10,8 C 45 % 48 % 1015,6 hPa 0,0 l/m 5,4 km/h (2 Bft) SO 140 0 min
20.05.2018 21:10 21,2 C 21,4 C 10,8 C 46 % 49 % 1015,6 hPa 0,0 l/m 13,3 km/h (3 Bft) S 175 0 min
20.05.2018 21:15 20,7 C 21,2 C 10,8 C 48 % 49 % 1015,6 hPa 0,0 l/m 9,7 km/h (2 Bft) S-SO 165 0 min
20.05.2018 21:20 20,5 C 21,0 C 10,8 C 48 % 51 % 1015,7 hPa 0,0 l/m 6,1 km/h (2 Bft) S-SW 195 0 min
20.05.2018 21:25 20,5 C 20,8 C 10,8 C 48 % 51 % 1015,7 hPa 0,0 l/m 3,0 km/h (1 Bft) SW 220 0 min
20.05.2018 21:30 20,2 C 20,6 C 10,8 C 50 % 52 % 1015,7 hPa 0,0 l/m 2,4 km/h (1 Bft) W-SW 240 0 min
20.05.2018 21:35 20,1 C 20,3 C 10,8 C 50 % 54 % 1016,7 hPa 0,0 l/m 3,6 km/h (1 Bft) N-NO 30 0 min
20.05.2018 21:40 19,8 C 20,1 C 10,8 C 51 % 54 % 1016,7 hPa 0,0 l/m 0,0 km/h (0 Bft) W-NW 285 0 min
20.05.2018 21:45 19,7 C 19,8 C 10,8 C 51 % 55 % 1016,7 hPa 0,0 l/m 0,0 km/h (0 Bft) NW 315 0 min
20.05.2018 21:50 19,6 C 19,5 C 10,8 C 52 % 56 % 1016,7 hPa 0,0 l/m 1,8 km/h (1 Bft) S-SO 160 0 min
20.05.2018 21:55 19,4 C 19,3 C 10,8 C 52 % 56 % 1016,7 hPa 0,0 l/m 1,8 km/h (1 Bft) W 260 0 min
20.05.2018 22:00 19,3 C 19,1 C 10,8 C 52 % 57 % 1016,7 hPa 0,0 l/m 3,6 km/h (1 Bft) S 175 0 min
20.05.2018 22:05 19,2 C 19,0 C 10,8 C 53 % 58 % 1016,7 hPa 0,0 l/m 2,4 km/h (1 Bft) W-NW 290 0 min
20.05.2018 22:10 19,1 C 18,9 C 10,8 C 53 % 58 % 1016,7 hPa 0,0 l/m 0,0 km/h (0 Bft) N-NW 345 0 min
20.05.2018 22:15 19,0 C 18,8 C 10,8 C 54 % 58 % 1016,7 hPa 0,0 l/m 4,2 km/h (1 Bft) S-SO 160 0 min
20.05.2018 22:20 18,9 C 18,7 C 10,8 C 54 % 59 % 1016,7 hPa 0,0 l/m 4,2 km/h (1 Bft) NW 305 0 min
20.05.2018 22:25 18,8 C 18,7 C 10,8 C 53 % 58 % 1016,7 hPa 0,0 l/m 0,0 km/h (0 Bft) W 270 0 min
20.05.2018 22:30 18,8 C 18,6 C 10,8 C 54 % 58 % 1016,7 hPa 0,0 l/m 0,0 km/h (0 Bft) SO 130 0 min
20.05.2018 22:35 19,1 C 18,7 C 10,8 C 51 % 57 % 1016,7 hPa 0,0 l/m 6,7 km/h (2 Bft) N-NO 25 0 min
20.05.2018 22:40 19,0 C 18,8 C 10,8 C 52 % 57 % 1016,7 hPa 0,0 l/m 6,7 km/h (2 Bft) O-NO 70 0 min
20.05.2018 22:45 19,3 C 18,9 C 10,8 C 49 % 55 % 1016,7 hPa 0,0 l/m 5,4 km/h (2 Bft) SO 145 0 min
20.05.2018 22:50 19,4 C 19,1 C 10,8 C 48 % 53 % 1016,7 hPa 0,0 l/m 7,3 km/h (2 Bft) O-NO 60 0 min
20.05.2018 22:55 19,5 C 19,2 C 10,8 C 48 % 53 % 1016,7 hPa 0,0 l/m 7,3 km/h (2 Bft) O 95 0 min
20.05.2018 23:00 19,4 C 19,2 C 10,8 C 49 % 53 % 1016,7 hPa 0,0 l/m 3,0 km/h (1 Bft) SO 135 0 min
20.05.2018 23:05 19,2 C 19,1 C 10,8 C 49 % 54 % 1016,7 hPa 0,0 l/m 4,8 km/h (1 Bft) S-SO 165 0 min
20.05.2018 23:10 19,1 C 18,9 C 10,8 C 49 % 54 % 1016,7 hPa 0,0 l/m 4,8 km/h (1 Bft) N-NO 20 0 min
20.05.2018 23:15 19,0 C 18,8 C 10,8 C 50 % 54 % 1016,7 hPa 0,0 l/m 5,4 km/h (2 Bft) S-SO 150 0 min
20.05.2018 23:20 18,9 C 18,8 C 10,8 C 50 % 54 % 1016,7 hPa 0,0 l/m 4,2 km/h (1 Bft) O 95 0 min
20.05.2018 23:25 18,6 C 18,6 C 10,8 C 50 % 54 % 1016,7 hPa 0,0 l/m 3,6 km/h (1 Bft) N-NW 330 0 min
20.05.2018 23:30 18,5 C 18,6 C 10,8 C 50 % 54 % 1016,7 hPa 0,0 l/m 3,6 km/h (1 Bft) O-NO 60 0 min
20.05.2018 23:35 18,5 C 18,6 C 10,8 C 50 % 54 % 1016,7 hPa 0,0 l/m 6,1 km/h (2 Bft) O-NO 70 0 min
20.05.2018 23:40 18,4 C 18,6 C 10,8 C 50 % 53 % 1016,7 hPa 0,0 l/m 7,3 km/h (2 Bft) O 80 0 min
20.05.2018 23:45 18,5 C 18,6 C 10,8 C 49 % 53 % 1016,7 hPa 0,0 l/m 6,7 km/h (2 Bft) NO 55 0 min
20.05.2018 23:50 18,4 C 18,5 C 10,8 C 49 % 53 % 1016,7 hPa 0,0 l/m 9,7 km/h (2 Bft) SO 130 0 min
20.05.2018 23:55 18,4 C 18,5 C 10,8 C 49 % 53 % 1016,7 hPa 0,0 l/m 6,1 km/h (2 Bft) O 100 0 min
_ Min-Zeit 05:45 05:45 00:00 18:40 18:40 19:35 - 03:35 - - -
Minimum _ 9,1 C 8,7 C 10,8 C 34 % 37 % 1014,6 hPa - 0,0 km/h (0 Bft) - - -
_ Max-Zeit 16:25 17:10 00:00 02:35 06:35 02:45 00:00 19:30 - - 13:10
Maximum _ 26,1 C 25,6 C 10,8 C 84 % 87 % 1020,8 hPa 0,0 l/m 28,6 km/h
O-NO (5 Bft)
- - 8 min
Durchschnitt _ 18,0 C 17,8 C 10,8 C 58 % 62 % 1018,4 hPa #0,0 l/m 9,5 km/h (2 Bft) NO - #11:40 h